Time,TemperatureF,DewpointF,PressureIn,WindDirection,WindDirectionDegrees,WindSpeedMPH,WindSpeedGustMPH,Humidity,HourlyPrecipIn,Conditions,Clouds,dailyrainin,SolarRadiationWatts/m^2,SoftwareType,DateUTC
2013-03-10 01:00:00,34.0,29.0,29.95,SE,134,1.0,-999.0,82,-99.99,,,-99.99,0.000000,,2013-03-10 08:00:00,
2013-03-10 03:00:00,32.0,28.0,29.95,NW,321,1.0,3.0,88,-99.99,,,-99.99,0.000000,,2013-03-10 09:00:00,
2013-03-10 04:00:00,33.0,27.0,29.94,North,4,2.0,-999.0,78,-99.99,,,-99.99,0.000000,,2013-03-10 10:00:00,
2013-03-10 05:00:00,32.0,26.0,29.96,NE,39,3.0,-999.0,76,-99.99,,,-99.99,0.000000,,2013-03-10 11:00:00,
2013-03-10 05:52:00,32.0,26.0,29.96,NE,39,3.0,-999.0,76,-99.99,,,-99.99,0.000000,,2013-03-10 11:52:00,
2013-03-10 06:00:00,32.0,25.0,29.98,NNE,19,2.0,7.0,75,-99.99,,,-99.99,0.000000,,2013-03-10 12:00:00,
2013-03-10 06:52:00,32.0,25.0,29.98,NNE,19,2.0,-999.0,75,-99.99,,,-99.99,0.000000,,2013-03-10 12:52:00,
2013-03-10 07:00:00,32.0,20.0,30.00,NNE,20,3.0,4.0,62,-99.99,,,-99.99,0.000000,,2013-03-10 13:00:00,
2013-03-10 08:00:00,31.0,20.0,30.03,North,359,4.0,7.0,62,-99.99,,,-99.99,13.910000,,2013-03-10 14:00:00,
2013-03-10 09:00:00,32.0,19.0,30.04,NNE,14,5.0,-999.0,57,-99.99,,,-99.99,147.600006,,2013-03-10 15:00:00,
2013-03-10 11:00:00,40.0,20.0,30.06,NNE,32,4.0,-999.0,45,-99.99,,,-99.99,483.200012,,2013-03-10 17:00:00,
2013-03-10 11:51:00,40.0,20.0,30.06,NNE,32,4.0,-999.0,45,-99.99,,,-99.99,483.200012,,2013-03-10 17:51:00,
2013-03-10 12:00:00,40.0,17.0,30.06,NE,46,5.0,-999.0,39,-99.99,,,-99.99,651.200012,,2013-03-10 18:00:00,
2013-03-10 12:52:00,40.0,17.0,30.06,NE,46,5.0,-999.0,39,-99.99,,,-99.99,651.200012,,2013-03-10 18:52:00,
2013-03-10 13:00:00,42.0,20.0,30.05,NNE,17,4.0,-999.0,42,-99.99,,,-99.99,657.900024,,2013-03-10 19:00:00,
2013-03-10 13:53:00,42.0,20.0,30.05,NNE,17,4.0,-999.0,42,-99.99,,,-99.99,657.900024,,2013-03-10 19:53:00,
2013-03-10 14:00:00,43.0,18.0,30.04,NE,38,5.0,-999.0,37,-99.99,,,-99.99,795.099976,,2013-03-10 20:00:00,
2013-03-10 14:53:00,43.0,18.0,30.04,NE,38,5.0,-999.0,37,-99.99,,,-99.99,795.099976,,2013-03-10 20:53:00,
2013-03-10 15:00:00,44.0,18.0,30.03,NE,51,4.0,-999.0,35,-99.99,,,-99.99,654.099976,,2013-03-10 21:00:00,
2013-03-10 15:53:00,44.0,18.0,30.03,NE,51,4.0,-999.0,35,-99.99,,,-99.99,654.099976,,2013-03-10 21:53:00,
2013-03-10 16:00:00,47.0,19.0,30.03,ENE,62,4.0,-999.0,33,-99.99,,,-99.99,679.500000,,2013-03-10 22:00:00,
2013-03-10 16:53:00,47.0,19.0,30.03,ENE,62,4.0,-999.0,33,-99.99,,,-99.99,679.500000,,2013-03-10 22:53:00,
2013-03-10 17:00:00,47.0,18.0,30.02,ENE,63,5.0,-999.0,31,-99.99,,,-99.99,499.000000,,2013-03-10 23:00:00,
2013-03-10 17:52:00,47.0,18.0,30.02,ENE,63,5.0,-999.0,31,-99.99,,,-99.99,499.000000,,2013-03-10 23:52:00,
2013-03-10 18:00:00,48.0,21.0,30.01,NE,52,4.0,-999.0,34,-99.99,,,-99.99,298.299988,,2013-03-11 00:00:00,
2013-03-10 18:53:00,48.0,21.0,30.01,NE,52,4.0,-999.0,34,-99.99,,,-99.99,298.299988,,2013-03-11 00:53:00,
2013-03-10 19:00:00,45.0,18.0,30.03,NE,34,3.0,-999.0,33,-99.99,,,-99.99,82.699997,,2013-03-11 01:00:00,
2013-03-10 19:53:00,45.0,18.0,30.03,NE,34,3.0,-999.0,33,-99.99,,,-99.99,82.699997,,2013-03-11 01:53:00,
2013-03-10 20:00:00,40.0,22.0,30.03,NNE,15,1.0,-999.0,48,-99.99,,,-99.99,1.420000,,2013-03-11 02:00:00,
2013-03-10 20:53:00,40.0,22.0,30.03,NNE,15,1.0,-999.0,48,-99.99,,,-99.99,1.420000,,2013-03-11 02:53:00,
2013-03-10 21:00:00,36.0,22.0,30.05,ESE,116,0.0,-999.0,58,-99.99,,,-99.99,0.000000,,2013-03-11 03:00:00,
2013-03-10 21:53:00,36.0,22.0,30.05,ESE,116,0.0,-999.0,58,-99.99,,,-99.99,0.000000,,2013-03-11 03:53:00,
2013-03-10 22:00:00,33.0,23.0,30.08,NNE,20,1.0,-999.0,66,-99.99,,,-99.99,0.000000,,2013-03-11 04:00:00,
2013-03-10 22:53:00,33.0,23.0,30.08,NNE,20,1.0,-999.0,66,-99.99,,,-99.99,0.000000,,2013-03-11 04:53:00,
2013-03-10 23:00:00,29.0,24.0,30.09,NNE,33,0.0,-999.0,82,-99.99,,,-99.99,0.000000,,2013-03-11 05:00:00,
2013-03-10 23:52:00,29.0,24.0,30.09,NNE,33,0.0,-999.0,82,-99.99,,,-99.99,0.000000,,2013-03-11 05:52:00,